Regional Weather Roundup
Issued by NWS

Home | Current Version | Previous Version | Text Only | Print | Product List | Glossary Off
Versions: 1 2 3 4 5 6 7 8 9 10 11 12 13 14 15 16 17 18 19 20 21 22 23 24 25 26 27 28 29 30 31 32 33 34 35 36 37 38 39 40 41 42 43 44 45 46 47 48 49 50

000
ASUS45 KCYS 191110
RWRWY

WYOMING REGIONAL WEATHER ROUNDUP
NATIONAL WEATHER SERVICE CHEYENNE WY
500 AM MDT SUN OCT 19 2014

NOTE:  "FAIR" INDICATES FEW OR NO CLOUDS BELOW 12,000 FEET
WITH NO SIGNIFICANT WEATHER AND/OR OBSTRUCTIONS TO VISIBILITY.

WYZ001-191200-
YELLOWSTONE NATIONAL PARK

CITY           SKY/WX    TMP DP  RH WIND       PRES   REMARKS
LK YELLOWSTONE   N/A     26  24  92 CALM      30.27R
W YELLOWSTONE  NOT AVBL

$$
WYZ002>013-054>058-071-098>099-191200-
NORTHERN WYOMING

CITY           SKY/WX    TMP DP  RH WIND       PRES   REMARKS
JACKSON        CLEAR     28  28 100 N8        30.22R WCI  20
CODY           CLEAR    N/A N/A N/A S7        30.09F
GREYBULL       CLEAR     39  30  70 CALM      30.07R
WORLAND        CLEAR     35  29  78 CALM      30.08R
SHERIDAN       CLEAR     42  31  64 S5        30.07R
BUFFALO        CLEAR     49  30  48 NW3       30.10S
GILLETTE       CLEAR     36  32  85 SW3       30.06S
HULETT         FAIR      43  34  70 S7        30.07
NEWCASTLE      FAIR      43  32  65 CALM      30.05

$$
WYZ014>020-022>026-101>103-191200-
CENTRAL WYOMING

CITY           SKY/WX    TMP DP  RH WIND       PRES   REMARKS
BIG PINEY      PTCLDY    28  23  81 E7        30.21R WCI  21
PINEDALE       MOSUNNY   28  27  93 W5        30.21S WCI  23
DUBOIS         FAIR      34  28  80 NW15      30.18S WCI  24
LANDER         CLEAR     46  29  51 CALM      30.11R
RIVERTON       CLEAR     40  31  70 N6        30.12R
CASPER         CLEAR     38  29  70 W6        30.11R WCI  33
DOUGLAS        CLEAR     38  33  82 NW7       30.10R WCI  33

$$
WYZ021-027>030-104>119-191200-
SOUTHERN WYOMING

CITY           SKY/WX    TMP DP  RH WIND       PRES   REMARKS
EVANSTON       PTCLDY    41  28  60 SE6       30.19F
KEMMERER       MOSUNNY   34  28  80 N10       30.21R WCI  26
FORT BRIDGER   FAIR      45  29  54 W7        30.22S
ROCK SPRINGS   PTCLDY    42  26  53 W5        30.18R
DIXON          FAIR      36  28  71 CALM      30.22R HAZE
RAWLINS        PTCLDY    35  25  66 S3        30.17S
SARATOGA       FAIR      34  27  75 S6        30.20S WCI  29
LARAMIE        CLEAR     33  26  75 SE9       30.18S WCI  25
CHEYENNE       CLEAR     48  27  44 NW9       30.11S
TORRINGTON     CLEAR     38  34  85 NW7       30.03R WCI  33
PINE BLUFFS    FAIR      39  32  75 W5        30.07S

$$


USA.gov is the U.S. government's official web portal to all federal, state and local government web resources and services.